STARLINK-1619 (46126 NORAD) Tracking and Keplerian Element Data

This shows tracking and keplerian element data for the satellite.

Feedback or suggestion? Click here.




ElementValue
Catalog46126
NameSTARLINK-1619
Epoch Orbit180
Epoch Day335.91670139
Epoch Year2020
RAAN317.2537
Inclination52.9989
Eccentricity0.0001282
Argument of Perigee77.2557
Mean Anonmoly156.4962
Mean Motion15.05571601
Decay Rate0.00027602
L11 46126U 20057K 20335.91670139 .00027602 00000-0 19066-2 0 9993
L22 46126 52.9989 317.2537 0001282 77.2557 156.4962 15.05571601 1800

Live tracking and technical data element details for STARLINK-1619 (NORAD 46126). STARLINK-1619 can be tracked NOW for your location showing map with azimuth and elevation plus other details from your city location.

Track the satellite on the map from your city or location and see movement details for azimuth, elevation, latitude, longitude, range, height, and movement on the map or in text.







IsCatalogInMostPopularTable: catalog: 46126, numindb: 20
Update: records affected: 1



GetName: 46126 STARLINK-1619

Hit Count: updated at: Tue, 01 Dec 2020 20:53:23 GMT